Regional Weather Roundup
Issued by NWS

Home | Current Version | Previous Version | Text Only | Print | Product List | Glossary Off
Versions: 1 2 3 4 5 6 7 8 9 10 11 12 13 14 15 16 17 18 19 20 21 22 23 24 25 26 27 28

000
ASUS45 KTFX 272310
RWRMT
MONTANA REGIONAL WEATHER ROUNDUP
NATIONAL WEATHER SERVICE GREAT FALLS MT
500 PM MDT MON MAR 27 2017

NOTE: "FAIR" INDICATES FEW OR NO CLOUDS BELOW 12000 FEET WITH NO
SIGNIFICANT WEATHER AND/OR OBSTRUCTIONS TO VISIBILITY.

MTZ001>007-043-280000-
WEST OF THE DIVIDE

CITY           SKY/WX    TMP DP  RH WIND       PRES   REMARKS
KALISPELL      CLOUDY    43  41  93 SE15      29.98R
MISSOULA       PTSUNNY   47  34  60 NW16G22   30.01R
BUTTE          MOSUNNY   44  26  49 NW15G22   29.93R
MULLAN PASS    SNOW      31  31 100 VRB6      30.00R VSB 1/4 WCI  25
ANACONDA         N/A     43  34  70 NW5       29.94S
DEER LODGE       N/A     45  30  57 NW12      29.98R
EUREKA           N/A     52  32  46 CALM      29.95R
HAMILTON         N/A     48  21  34 W8        29.99R
PLAINS           N/A     46  34  63 W16       30.04R
RONAN            N/A     44  38  79 E7        30.05R
THOMPSON FALLS   N/A     48  37  65 W3        30.09R
$$

MTZ008-052>055-280000-
SOUTHWEST MONTANA

CITY           SKY/WX    TMP DP  RH WIND       PRES   REMARKS
BOZEMAN        CLOUDY    51  31  46 W16       29.87R
DILLON         CLOUDY    48  26  42 N15       29.87R
W YELLOWSTONE  CLOUDY    37  30  75 SW12G17   29.90R WCI  30
ENNIS          SUNNY     48  27  43 S6        29.91S
THREE FORKS      N/A     47 -43   2 NW22      29.90R
TWIN BRIDGES     N/A     45  32  60 N22       29.89R
$$

MTZ009-010-012-014-046-048-049-054-280000-
EAST SLOPES AND CENTRAL MONTANA

CITY           SKY/WX    TMP DP  RH WIND       PRES   REMARKS
CUT BANK       CLOUDY    52  28  39 S14       29.86R
GREAT FALLS    CLOUDY    52  27  38 W3        29.86R
MALMSTROM AFB  CLOUDY    53  29  39 W6        29.87R
HELENA         CLOUDY    49  34  56 W17G25    29.90R
AUGUSTA        PTSUNNY   47  33  57 S5        29.89R
BOWMANS CRNR   LGT RAIN  47  34  60 NW20      29.87R
CHOTEAU          N/A     48  34  57 S10       29.91R
CONRAD           N/A     52  30  43 W9        29.90R
FAIRFIELD      LGT RAIN  49  28  44 W13       29.88R
POWER          PTSUNNY   52  26  36 N6        29.86R
RAYNESFORD     PTSUNNY   51  26  38 N5        29.87R
$$

MTZ011-013-016-021-045-047-050-051-280000-
NORTH CENTRAL MONTANA

CITY           SKY/WX    TMP DP  RH WIND       PRES   REMARKS
HAVRE          CLOUDY    58  30  34 E8        29.83R
LEWISTOWN      CLOUDY    51  26  37 W9        29.85R
N BAR RANCH    PTSUNNY   50  32  50 NE5       29.88R
CHINOOK          N/A     55  37  50 E9        29.85S
DENTON         PTSUNNY   53  28  37 NW9       29.82R
FORT BENTON      N/A     55  28  35 MISG      29.86R
GEYSER         PTSUNNY   51  25  35 W10       29.86R
GRASS RANGE    LGT RAIN  51  32  47 N3        29.83R
JUDITH GAP     PTSUNNY   49  29  47 N13       29.86R
STANFORD       PTSUNNY   48  27  44 NW15      29.87R
WINIFRED         N/A     53  27  36 W9        29.84R
$$

MTZ017>020-022>027-061-062-280000-
NORTHEAST MONTANA

CITY           SKY/WX    TMP DP  RH WIND       PRES   REMARKS
GLASGOW        MOSUNNY   57  33  40 E10       29.85S
JORDAN           N/A     59  33  37 N13G18    29.82R
SIDNEY         CLOUDY    54  37  52 VRB6      29.88R
WOLF POINT     CLOUDY    59  37  44 E16       29.86R
MALTA          MOSUNNY   55  39  54 NE13      29.86R
PLENTYWOOD       N/A     52  36  54 E10       29.91S
POPLAR           N/A     54  37  54 E21       29.86S
SCOBEY           N/A     53  28  38 NE8       29.89S
$$

MTZ028>42-056>058-280000-
SOUTHCENTRAL AND SOUTHEAST MONTANA

CITY           SKY/WX    TMP DP  RH WIND       PRES   REMARKS
BAKER          CLOUDY    60  25  26 SE8G18    29.84S
BILLINGS       PTSUNNY   58  28  32 N6        29.82R
LIVINGSTON     CLOUDY    48  32  53 NW16      29.86R
MILES CITY     CLOUDY    59  36  42 NE8       29.82R
BIG TIMBER     PTSUNNY   52  28  40 W15       29.87R
EKALAKA          N/A     59  25  27 E5        29.83S
FORSYTH          N/A     61  28  29 NW6       29.80R
HARLOWTON      PTSUNNY   52  28  39 N13       29.85R
LAUREL           N/A     57  28  33 NW6       29.84R
ROUNDUP          N/A     56  25  30 SW7       29.77R
$$

REGIONAL REPORTS...DAKOTAS

CITY           SKY/WX    TMP DP  RH WIND       PRES   REMARKS
WILLISTON      CLOUDY    57  33  40 E14       29.89R
MINOT          CLOUDY    38  36  92 NW10      29.97R FOG     WCI  31
DICKINSON      CLOUDY    59  23  25 E9        29.84S
BEACH            N/A    N/A N/A N/A MISG        N/A
TIOGA            N/A     48  43  81 NE17      29.93R
WATFORD CITY     N/A     55  36  47 E15G21    29.88R
BISMARCK       SUNNY     64  28  25 SE6       29.89S
GRAND FORKS    PTSUNNY   45  40  82 NE7       30.00S
FARGO          SUNNY     57  43  59 N7        29.95F
BUFFALO SD       N/A     61  31  32 E12       29.78S
RAPID CITY     PTSUNNY   60  35  39 VRB7      29.83S
$$

REGIONAL REPORTS...WYOMING/IDAHO/WASHINGTON

CITY           SKY/WX    TMP DP  RH WIND       PRES   REMARKS
GILLETTE       CLOUDY    58  28  32 N8        29.80F
SHERIDAN       CLOUDY    58  31  35 SW5       29.81S
BUFFALO WY     CLOUDY    53  31  42 NE6       29.85S
CODY           SUNNY     55  24  30 SE8       29.82S
YELLOWSTONE LA   N/A     32  28  85 CALM      29.93R
IDAHO FALLS    CLOUDY    46  37  71 S12       29.92R
SALMON         CLOUDY    48  28  46 NW6       29.94R
BOISE          PTSUNNY   55  32  41 NW15G24   30.04R
SPOKANE        PTSUNNY   51  34  52 SW14      30.04R
$$

REGIONAL REPORTS...ALBERTA

CITY           SKY/WX    TMP DP  RH WIND       PRES   REMARKS
EDMONTON       MOSUNNY   39  32  75 E9        29.87R
CALGARY        PTSUNNY   52  23  32 E9        29.81R
LETHBRIDGE     PTSUNNY   55  25  30 W16G22    29.82R
MEDICINE HAT   PTSUNNY   57  28  33 CALM      29.82R
WATERTON GATE    N/A     46  27  46 SW13G20     N/A
CARDSTON         N/A     52  25  35 W9          N/A
MILK RIVER       N/A     54  27  35 NW7         N/A
$$

REGIONAL REPORTS...SASKATCHEWAN

CITY           SKY/WX    TMP DP  RH WIND       PRES   REMARKS
SWIFT CURRENT  CLOUDY    52  23  32 E9        29.89R
REGINA         PTSUNNY   43  36  75 E10       29.97S
CYPRESS HILLS    N/A     46  27  46 SE9         N/A
VAL MARIE        N/A     48  37  66 E16         N/A
ROCKGLEN         N/A     45  34  65 N5          N/A
ASSINIBOIA       N/A     36  32  87 SE7         N/A  WCI  30
$$




USA.gov is the U.S. government's official web portal to all federal, state and local government web resources and services.